TimeEDT,TemperatureF,Dew PointF,Humidity,Sea Level PressureIn,VisibilityMPH,Wind Direction,Wind SpeedMPH,Gust SpeedMPH,PrecipitationIn,Events,Conditions,WindDirDegrees,DateUTC
12:51 AM,71.1,66.0,84,30.16,10.0,NE,5.8,-,N/A,,Scattered Clouds,40,2013-09-16 04:51:00
1:51 AM,71.1,66.9,87,30.14,10.0,ENE,3.5,-,N/A,,Clear,60,2013-09-16 05:51:00
2:51 AM,68.0,66.0,93,30.13,10.0,Calm,Calm,-,N/A,,Clear,0,2013-09-16 06:51:00
3:51 AM,69.1,66.9,93,30.12,10.0,NE,3.5,-,N/A,,Clear,40,2013-09-16 07:51:00
4:51 AM,66.9,64.9,93,30.12,10.0,NE,3.5,-,N/A,,Mostly Cloudy,40,2013-09-16 08:51:00
5:51 AM,66.9,64.9,93,30.12,10.0,Calm,Calm,-,N/A,,Partly Cloudy,0,2013-09-16 09:51:00
6:51 AM,68.0,64.9,90,30.13,8.0,Calm,Calm,-,N/A,,Partly Cloudy,0,2013-09-16 10:51:00
7:51 AM,78.1,70.0,76,30.14,10.0,South,5.8,-,N/A,,Clear,190,2013-09-16 11:51:00
8:51 AM,79.0,70.0,74,30.13,10.0,South,5.8,-,N/A,,Clear,180,2013-09-16 12:51:00
9:51 AM,80.1,70.0,71,30.14,10.0,South,8.1,-,N/A,,Clear,180,2013-09-16 13:51:00
10:51 AM,82.0,71.1,69,30.13,10.0,SSW,6.9,-,N/A,,Clear,210,2013-09-16 14:51:00
11:51 AM,82.0,72.0,71,30.12,10.0,SSW,6.9,-,N/A,,Clear,210,2013-09-16 15:51:00
12:51 PM,84.9,72.0,65,30.09,10.0,SSW,8.1,-,N/A,,Clear,200,2013-09-16 16:51:00
1:51 PM,84.9,72.0,65,30.07,10.0,SSW,10.4,-,N/A,,Mostly Cloudy,210,2013-09-16 17:51:00
2:37 PM,78.8,71.6,78,30.07,1.8,WSW,13.8,24.2,0.02,Rain,Heavy Rain,250,2013-09-16 18:37:00
2:40 PM,75.2,71.6,89,30.07,0.8,West,13.8,24.2,0.05,Rain,Heavy Rain,270,2013-09-16 18:40:00
2:51 PM,73.9,71.1,91,30.06,0.8,SW,11.5,17.3,0.30,Rain,Light Rain,230,2013-09-16 18:51:00
2:53 PM,73.4,71.6,94,30.06,2.5,WSW,11.5,17.3,0.00,Rain,Light Rain,240,2013-09-16 18:53:00
3:00 PM,73.4,71.6,94,30.06,10.0,WSW,8.1,17.3,0.00,,Mostly Cloudy,250,2013-09-16 19:00:00
3:22 PM,75.2,71.6,89,30.05,9.0,SW,8.1,-,0.00,Thunderstorm,Scattered Clouds,230,2013-09-16 19:22:00
3:37 PM,77.0,71.6,83,30.05,10.0,SW,9.2,-,0.00,,Partly Cloudy,230,2013-09-16 19:37:00
3:51 PM,75.9,72.0,87,30.05,10.0,SW,8.1,-,0.00,,Partly Cloudy,230,2013-09-16 19:51:00
4:51 PM,75.9,72.0,87,30.05,10.0,SSW,5.8,-,N/A,,Overcast,210,2013-09-16 20:51:00
5:51 PM,79.0,72.0,79,30.05,10.0,South,5.8,-,N/A,,Scattered Clouds,190,2013-09-16 21:51:00
6:51 PM,77.0,72.0,84,30.05,10.0,SSW,6.9,-,N/A,,Clear,210,2013-09-16 22:51:00
7:51 PM,77.0,72.0,84,30.06,10.0,SW,5.8,-,N/A,,Clear,220,2013-09-16 23:51:00
8:51 PM,77.0,71.1,82,30.07,10.0,WSW,8.1,-,N/A,,Clear,240,2013-09-17 00:51:00
9:20 PM,77.0,71.6,83,30.07,10.0,SW,10.4,-,N/A,,Mostly Cloudy,220,2013-09-17 01:20:00
9:27 PM,75.2,71.6,89,30.08,10.0,West,9.2,-,N/A,Thunderstorm,Mostly Cloudy,280,2013-09-17 01:27:00
9:33 PM,73.4,69.8,88,30.09,1.0,North,10.4,27.6,0.03,Rain-Thunderstorm,Heavy Rain,350,2013-09-17 01:33:00
9:35 PM,71.6,69.8,94,30.09,0.8,North,8.1,27.6,0.21,Rain-Thunderstorm,Heavy Rain,10,2013-09-17 01:35:00
9:46 PM,69.8,69.8,100,30.10,0.8,NE,11.5,20.7,0.92,Rain,Heavy Rain,40,2013-09-17 01:46:00
9:51 PM,70.0,69.1,97,30.10,1.8,NE,12.7,23.0,0.97,Rain,Heavy Rain,40,2013-09-17 01:51:00
9:54 PM,69.8,69.8,100,30.10,3.0,NE,15.0,24.2,0.02,Rain,Light Rain,40,2013-09-17 01:54:00
10:05 PM,71.6,69.8,94,30.11,10.0,NE,11.5,23.0,0.02,Rain,Light Rain,40,2013-09-17 02:05:00
10:21 PM,71.6,69.8,94,30.11,10.0,NE,9.2,19.6,0.02,,Overcast,40,2013-09-17 02:21:00
10:33 PM,71.6,69.8,94,30.11,10.0,NNE,8.1,20.7,0.02,,Overcast,30,2013-09-17 02:33:00
10:51 PM,71.1,68.0,90,30.12,5.0,North,11.5,23.0,0.02,Rain,Light Rain,10,2013-09-17 02:51:00
11:16 PM,71.6,68.0,88,30.11,10.0,NNE,10.4,23.0,0.00,,Overcast,30,2013-09-17 03:16:00
11:51 PM,73.0,68.0,84,30.12,10.0,NNE,12.7,21.9,0.00,,Overcast,20,2013-09-17 03:51:00